TimeCDT,TemperatureF,Dew PointF,Humidity,Sea Level PressureIn,VisibilityMPH,Wind Direction,Wind SpeedMPH,Gust SpeedMPH,PrecipitationIn,Events,Conditions,WindDirDegrees,DateUTC
12:55 AM,77.0,70.0,79,29.76,10.0,South,9.2,-,N/A,,Clear,190,2013-06-26 05:55:00
1:24 AM,78.8,69.8,74,29.78,10.0,SW,9.2,-,0.00,Rain-Thunderstorm,Light Rain,220,2013-06-26 06:24:00
1:55 AM,73.0,71.1,93,29.77,4.0,SSW,11.5,20.7,0.05,Rain-Thunderstorm,Light Thunderstorms and Rain,210,2013-06-26 06:55:00
2:27 AM,68.0,66.2,94,29.80,1.8,SW,26.5,34.5,0.11,Rain-Thunderstorm,Heavy Thunderstorms and Rain,220,2013-06-26 07:27:00
2:34 AM,68.0,66.2,94,29.79,0.8,SSW,20.7,34.5,0.35,Rain-Thunderstorm,Heavy Thunderstorms and Rain,200,2013-06-26 07:34:00
2:45 AM,68.0,66.2,94,29.76,1.8,South,9.2,-,0.59,Rain-Thunderstorm,Heavy Thunderstorms and Rain,190,2013-06-26 07:45:00
2:49 AM,68.0,66.2,94,29.77,3.0,SSW,11.5,-,0.62,Rain-Thunderstorm,Light Thunderstorms and Rain,200,2013-06-26 07:49:00
2:55 AM,68.0,66.0,93,29.75,7.0,South,12.7,-,0.62,Rain-Thunderstorm,Light Thunderstorms and Rain,170,2013-06-26 07:55:00
3:07 AM,66.2,66.2,100,29.76,10.0,South,17.3,20.7,0.01,Thunderstorm,Mostly Cloudy,180,2013-06-26 08:07:00
3:28 AM,66.2,64.4,94,29.76,10.0,South,12.7,19.6,0.01,,Partly Cloudy,180,2013-06-26 08:28:00
3:55 AM,66.9,64.9,93,29.74,10.0,South,10.4,-,0.01,,Mostly Cloudy,180,2013-06-26 08:55:00
4:55 AM,66.9,64.9,93,29.74,10.0,SSE,9.2,-,N/A,,Partly Cloudy,160,2013-06-26 09:55:00
5:55 AM,66.9,64.9,93,29.74,10.0,SSW,5.8,-,N/A,,Mostly Cloudy,200,2013-06-26 10:55:00
6:42 AM,69.8,66.2,88,29.76,10.0,South,5.8,-,N/A,,Overcast,180,2013-06-26 11:42:00
6:55 AM,70.0,68.0,93,29.74,10.0,South,8.1,-,N/A,,Overcast,180,2013-06-26 11:55:00
7:30 AM,71.6,68.0,88,29.77,10.0,South,5.8,-,N/A,,Overcast,170,2013-06-26 12:30:00
7:55 AM,72.0,69.1,91,29.75,10.0,SSE,6.9,-,N/A,,Overcast,160,2013-06-26 12:55:00
8:55 AM,73.0,70.0,90,29.76,10.0,SSE,4.6,-,N/A,,Overcast,160,2013-06-26 13:55:00
9:39 AM,78.8,73.4,83,29.77,10.0,SW,3.5,-,N/A,,Overcast,220,2013-06-26 14:39:00
9:55 AM,79.0,73.0,82,29.75,9.0,West,4.6,-,N/A,,Overcast,260,2013-06-26 14:55:00
10:10 AM,80.6,73.4,79,29.77,8.0,West,3.5,-,N/A,,Overcast,280,2013-06-26 15:10:00
10:55 AM,82.0,75.0,79,29.76,8.0,West,8.1,-,N/A,,Overcast,280,2013-06-26 15:55:00
11:55 AM,84.9,75.9,74,29.77,9.0,WNW,9.2,-,N/A,,Overcast,300,2013-06-26 16:55:00
12:55 PM,87.1,77.0,72,29.77,10.0,Variable,5.8,-,N/A,,Mostly Cloudy,0,2013-06-26 17:55:00
1:02 PM,87.8,77.0,70,29.79,10.0,West,5.8,-,N/A,,Mostly Cloudy,270,2013-06-26 18:02:00
1:55 PM,90.0,77.0,65,29.76,10.0,West,10.4,-,N/A,,Scattered Clouds,280,2013-06-26 18:55:00
2:55 PM,91.0,78.1,66,29.76,10.0,West,5.8,-,N/A,,Scattered Clouds,270,2013-06-26 19:55:00
3:55 PM,91.0,75.0,59,29.75,10.0,West,16.1,21.9,N/A,,Scattered Clouds,280,2013-06-26 20:55:00
4:55 PM,90.0,70.0,52,29.77,10.0,NW,13.8,20.7,N/A,,Clear,310,2013-06-26 21:55:00
5:55 PM,89.1,68.0,50,29.78,10.0,WNW,11.5,-,N/A,,Clear,300,2013-06-26 22:55:00
6:55 PM,87.1,70.0,57,29.78,10.0,WNW,8.1,-,N/A,,Clear,300,2013-06-26 23:55:00
7:55 PM,82.0,70.0,67,29.80,10.0,NW,3.5,-,N/A,,Clear,310,2013-06-27 00:55:00
8:55 PM,75.0,70.0,84,29.81,10.0,WNW,3.5,-,N/A,,Clear,290,2013-06-27 01:55:00
9:55 PM,70.0,68.0,93,29.83,10.0,WSW,3.5,-,N/A,,Clear,250,2013-06-27 02:55:00
10:55 PM,69.1,68.0,96,29.85,10.0,West,4.6,-,N/A,,Clear,270,2013-06-27 03:55:00
11:55 PM,69.1,66.9,93,29.86,10.0,West,3.5,-,N/A,,Clear,270,2013-06-27 04:55:00